www.pogodaiklimat.ru

Погода и климат >> Архив погоды >> Россия >> Чечня >> Шелковская


ПОГОДА в Шелковской

  • Прогноз погоды в Шелковской
  • Монитор погоды в Шелковской

АРХИВ ПОГОДЫ в Шелковской

Время (UTC), дата Ветер
(напр.,м/с)
 
Видим.   Явления Облачность Т
(С)
Тd
(С)
f
(%)
Тe
(С)
Тes
(С)
Комфортность P
(гПа)
Po
(гПа)
Тmin
(С)
Tmax
(С)
R
(мм)
R24
(мм)
S
(см)
12 13.05 З 6 10 км 10/10 300 м
[Sc]
+20.4 +12.2 59 +22 +22 комфорт 1018.6 1017.1
15 13.05 З 3 10 км 10/10 300 м
[Sc]
+19.6 +12.5 64 +21 +21 комфорт 1018.1 1016.6 +20.4 1
18 13.05 ЮЗ 2 10 км 8/0
[Ac lent]
+17.3 +12.0 71 +18 +18 1019.1 1017.5
21 13.05 ЮЗ 3 10 км 8/0
[Ac lent]
+16.0 +12.4 79 +16 +16 1018.1 1016.6
00 14.05 ЮЗ 2 10 км 8/0
[Ac lent]
+13.3 +11.6 89 +13 +13 1017.9 1016.4
03 14.05 ЮЗ 2 10 км 5/0
[Ac lent]
+15.0 +12.1 83 +15 +16 1018.8 1017.3 +13.3
06 14.05 З 4 10 км 3/3
[Cu med, cong]
+20.5 +13.6 65 +23 +29 комфорт 1018.7 1017.2
09 14.05 СЗ 4 10 км 4/4 300 м
[Cu med, cong]
+24.3 +11.4 44 +26 +33 жарко 1017.5 1016.0
12 14.05 З 3 10 км 4/4 300 м
[Cu med, cong]
+24.7 +11.9 45 +26 +32 жарко 1016.8 1015.3
15 14.05 З 4 10 км 5/5 300 м
[Cu med, cong Ac lent]
+24.8 +11.6 44 +26 +27 жарко 1016.2 1014.7 +24.8
18 14.05 З 2 10 км 5/0
[Ac lent]
+18.6 +11.9 65 +20 +20 1017.3 1015.8
21 14.05 ЮЗ 2 10 км 4/0
[Ac lent]
+17.4 +12.2 72 +18 +18 1017.3 1015.8
00 15.05 ЮЗ 3 10 км 3/0
[Ac lent]
+16.3 +12.3 77 +16 +16 1016.9 1015.4
03 15.05 ЮЗ 3 10 км 3/0
[Ac lent Ci fib]
+16.8 +12.1 74 +17 +18 1017.6 1016.1 +16.3
06 15.05 З 6 10 км 3/0
[Ac lent Ci fib]
+23.7 +12.1 48 +25 +29 комфорт 1017.3 1015.8
09 15.05 З 6
{10}
10 км 8/6 300 м
[Cu med, cong Ac lent]
+26.7 +11.8 39 +28 +30 жарко 1016.1 1014.6
12 15.05 З 6 10 км 5/0
[Ac lent]
+27.9 +12.1 38 +29 +32 жарко 1015.2 1013.7
15 15.05 З 4 10 км 5/0
[Ac lent]
+26.9 +13.4 43 +29 +29 жарко 1014.8 1013.3 +27.9
18 15.05 З 3 10 км 8/0
[Ac lent]
+21.7 +13.2 58 +24 +24 комфорт 1015.4 1013.9
21 15.05 ЮЗ 3 10 км 5/0
[Ac lent]
+17.9 +12.5 71 +18 +18 1014.8 1013.3
00 16.05 ЮЗ 3 10 км 5/0
[Ac lent]
+17.5 +12.7 73 +18 +18 1014.7 1013.1
03 16.05 ЮЗ 3 10 км ясно +18.0 +13.2 74 +18 +19 1014.7 1013.1 +17.5
06 16.05 З 5 10 км ясно +25.2 +15.7 56 +28 +35 жарко 1014.7 1013.2
09 16.05 СЗ 4 10 км 8/8 300 м
[Cb cap]
+27.1 +15.7 50 +30 +33 душно 1014.1 1012.6
12 16.05 С 4 10 км 8/8 300 м
[Cb cap]
+29.6 +14.5 40 +32 +33 душно 1013.4 1011.8
15 16.05 В 5 10 км 3/0
[Ac lent]
+26.5 +15.5 51 +30 +30 душно 1013.7 1012.1 +29.6
18 16.05 В 3 10 км 3/0
[Ac lent]
+19.2 +15.5 79 +21 +21 комфорт 1014.9 1013.3
21 16.05 В 3 10 км ясно +16.0 +14.4 90 +16 +16 1014.3 1012.7
00 17.05 В 3 10 км ясно +14.5 +13.8 96 +13 +13 1014.0 1012.4
03 17.05 штиль 0 10 км 1/0
[Ac lent]
+13.9 +13.4 97 +13 +15 1014.2 1012.6 +13.9
06 17.05 В 5 10 км ясно +23.8 +16.1 62 +27 +33 жарко 1013.7 1012.2
09 17.05 В 8
{12}
10 км ясно +28.2 +13.0 39 +30 +33 жарко 1012.7 1011.2
12 17.05 В 9
{14}
10 км ясно +27.9 +11.9 37 +29 +30 жарко 1011.6 1010.1
15 17.05 В 5 10 км ясно +25.0 +13.2 48 +27 +28 жарко 1011.6 1010.1 +28.2
18 17.05 В 5 10 км ясно +18.1 +13.3 74 +18 +18 1011.7 1010.2
21 17.05 В 4 10 км ясно +15.8 +13.1 84 +15 +15 1010.9 1009.4
00 18.05 В 5 10 км ясно +14.3 +12.3 88 +13 +13 1010.2 1008.7
03 18.05 В 2 10 км 10/10 300 м
[St]
+15.4 +14.0 91 +15 +15 1010.7 1009.2 +14.3
06 18.05 В 4 10 км 6/0
[Ac lent]
+20.6 +16.3 76 +24 +28 комфорт 1010.3 1008.8
09 18.05 В 6 10 км 6/0
[Ac lent]
+26.4 +14.8 49 +29 +33 жарко 1009.7 1008.2
12 18.05 В 7 10 км 5/0
[Ac lent Ci fib]
+26.3 +13.2 44 +28 +30 жарко 1008.9 1007.4
15 18.05 В 6 10 км 6/0
[Ac lent Ci fib]
+23.3 +13.3 53 +26 +27 жарко 1008.2 1006.7 +26.4
18 18.05 В 4 10 км 10/0
[Ac lent]
+18.2 +15.0 82 +18 +18 1009.3 1007.8
21 18.05 СВ 2 10 км 8/0
[Ci fib]
+15.7 +14.5 93 +16 +16 1008.1 1006.6
00 19.05 СЗ 1 10 км 5/0
[Ci fib]
+13.3 +12.9 97 +13 +13 1007.8 1006.3
03 19.05 З 1 500 м туман ?/? +13.6 +13.4 99 +14 +14 1008.5 1007.0 +13.3
06 19.05 СЗ 3 10 км в посл. час туман 9/9 300 м
[St]
+19.6 +16.3 81 +22 +23 комфорт 1009.1 1007.6
09 19.05 СВ 2 10 км 8/0
[Ac lent Ci fib]
+25.5 +15.9 55 +29 +40 душно 1008.6 1007.1
12 19.05 СВ 5 10 км 8/0
[Ac lent]
+26.0 +14.1 48 +28 +30 жарко 1008.6 1007.1
15 19.05 СВ 2 10 км 8/0
[Ac lent]
+23.8 +14.2 55 +26 +27 жарко 1010.4 1008.8 +26.0
18 19.05 ЮВ 2 10 км 10/10 600 м
[Sc]
+20.0 +13.4 66 +23 +23 комфорт 1011.8 1010.2
21 19.05 ЮВ 2 10 км 10/10 600 м
[Sc]
+17.6 +14.1 80 +18 +18 1012.4 1010.8
00 20.05 штиль 0 10 км 8/8 600 м
[Sc]
+17.6 +14.3 81 +18 +18 1012.4 1010.8
03 20.05 В 1 10 км 8/0
[Ac lent]
+16.8 +14.2 85 +18 +18 1012.3 1010.7 +16.8
06 20.05 СВ 3 10 км 6/0
[Ac lent]
+12.3 +14.7 100 +11 +16 1013.8 1012.3
09 20.05 В 3 10 км 10/0
[Ac lent]
+25.4 +11.3 41 +27 +30 жарко 1014.6 1013.1

 

Местоположение метеостанции Шелковская (Чечня, Россия): широта 43.53 долгота 46.37 высота над уровнем моря 13 м.

В архиве по умолчанию представлена погода в Шелковской за последнюю неделю. Архивные данные за месяц целиком и за предыдущие месяцы, начиная с января 2011 года, Вы можете получить, выбрав интересующий диапазон дат из раскрывающегося списка и нажав кнопку "Ввод!".


*Определитесь, кто Вы:
робот инопланетянин человек

Внимание! Время в таблицах - всемирное. Для получения местного времени необходимо прибавить поправку, которая равна 3 ч.

Смотрите также архив погоды в соседних городах и на ближайших метеорологических станциях:

Погода в Гудермесе (Чечня, Россия) (28 км)
Погода в Бабаюрте (Дагестан, Россия) (34 км)
Погода в Хасавюрте (Дагестан, Россия) (35 км)
Погода в Кизляре (Дагестан, Россия) (44 км)
Погода в Грозном (Чечня, Россия) (61 км)
Погода в Терекли-Мектебе (Дагестан, Россия) (77 км)
Погода в Наурской (Чечня, Россия) (86 км)
Погода в Шатое (Чечня, Россия) (91 км)
Погода в Кочубее (Дагестан, Россия) (98 км)
Погода в Буйнакске (Дагестан, Россия) (100 км)

Пояснения к столбцам:

Ветер - указаны скорость ветра в м/с - средняя за 10 мин, порывы в срок и между сроками (в фигурных скобках) и направление, откуда дует ветер: С - северный, СВ - северо-восточный, В - восточный, ЮВ - юго-восточный, Ю - южный, ЮЗ - юго-западный, З - западный, СЗ - северо-западный.
Видимость - горизонтальная дальность видимости в метрах или километрах. При видимости от 1 до 10 км при отсутствии осадков обычно наблюдается дымка, при ухудшении видимости до 1 км и менее - туман. В сухую погоду видимость может ухудшаться дымом, пылью или мглою.
Явления - указаны атмосферные явления, наблюдавшиеся в срок или в последний час перед сроком; фигурными скобками обозначены явления, наблюдавшиеся между сроками (за 1-3 часа до срока); квадратными скобками обозначены град или гололедные отложения с указанием их диаметра в мм.
Облачность - указаны через наклонную черту общая и нижняя облачность в баллах и высота нижней границы облаков в метрах; квадратными скобками обозначены формы облаков: Ci - перистые, Cs - перисто-слоистые, Cc - перисто-кучевые, Ac - высококучевые, As - высокослоистые, Sc - слоисто-кучевые, Ns - слоисто-дождевые, Cu - кучевые, Cb - кучево-дождевые. Подробнее классификацию облаков см. в Атласе облаков (PDF).
T - Температура воздуха - температура, измеренная на высоте 2 м над землей.
Td - Температура точки росы - температура, при понижении до которой содержащийся в воздухе водяной пар достигнет насыщения.
f - Относительная влажность воздуха - влажноcть воздуха, измеренная на высоте 2 м над землей.
Te - Эффективная температура - температура, которую ощущает одетый по сезону человек в тени. Характеристика душности погоды. При расчете учитывается влияние влажности воздуха и скорости ветра на теплоощущения человека.
Tes - Эффективная температура на солнце - температура, которую ощущает человек, с поправкой на солнечный нагрев. Характеристика знойности погоды. Зависит от высоты солнца над горизонтом, облачности и скорости ветра. Ночью, в пасмурную погоду, а также при ветре 12 м/с и более поправка равна нулю.
P - Атмосферное давление - приведенное к уровню моря атмосферное давление.
Po - Атмосферное давление - измеренное на уровне метеостанции атмосферное давление.
Tmin - Минимальная температура - минимум температуры воздуха на высоте 2 м над землей.
Tmax - Максимальная температура - максимум температуры воздуха на высоте 2 м над землей.
R - Количество осадков - Количество выпавших осадков за период времени, мм. При наведении курсора мыши на число - период времени, за который выпало указанное количество осадков.
R24 - Количество осадков - Количество выпавших осадков за 24 часа, мм.
S - Снежный покров - Высота снежного покрова, см. При наведении курсора мыши на число - состояние снежного покрова и степень покрытия местности в баллах.